Seattle, WA
on Friday, January 11, 2013

Friday
Previous Day Next Day
Daily Summary
 ActualAverageRecord
Temperature
Mean Temperature °F 42°F  
Max Temperature 37°F 47°F 59°F (1987)
Min Temperature 27°F 37°F 12°F (1963)
Degree Days
Heating Degree Days 33 23  
Month to date heating degree days 278 261  
Since 1 July heating degree days 2029 2199  
Cooling Degree Days 0 0  
Month to date cooling degree days 0 0  
Year to date cooling degree days 0 0  
Moisture
Dew Point 25°F   
Average Humidity 70    
Maximum Humidity 92    
Minimum Humidity 48    
Precipitation
Precipitation 0.00 in 0.19 in 1.26 in (1953)
Month to date precipitation 2.71 2.08  
Year to date precipitation 2.71 2.08  
Snow
Snow 0.00 in in 3.30 in (1971)
Month to date snowfall T  
Since 1 July snowfall 0.6  
Snow Depth 0.00 in   
Wind
Wind Speed 4 mph   
Max Wind Speed 10 mph   
Max Gust Speed 15 mph   
Visibility 6 miles   
Events Fog   

Key: T is trace of precipitation, MM is missing value
Source: NWS Daily Summary
Time(PST)TemperatureDew PointHumidity Pressure Visibility Wind DirectionWind SpeedGust SpeedPrecipitationEvents Conditions
12:01 AM 32.0°F 30.2°F 93% 30.11 in 0.2 miles SSE 3.5 mph - N/A Fog Fog
12:12 AM 30.2°F 30.2°F 100% 30.11 in 0.2 miles Calm Calm - N/A Fog Light Freezing Fog
12:53 AM 30.9°F 28.9°F 92% 30.14 in 0.2 miles SE 3.5 mph - N/A Fog Light Freezing Fog
1:53 AM 30.0°F 28.9°F 96% 30.16 in 0.2 miles Calm Calm - N/A Fog Light Freezing Fog
2:21 AM 30.2°F 28.4°F 93% 30.13 in 0.2 miles ESE 3.5 mph - N/A Fog Light Freezing Fog
2:53 AM 30.0°F 28.0°F 92% 30.17 in 1.5 miles ESE 5.8 mph - N/A   Scattered Clouds
3:17 AM 28.4°F 26.6°F 93% 30.14 in 3.0 miles Calm Calm - N/A   Scattered Clouds
3:53 AM 28.9°F 27.0°F 92% 30.17 in 5.0 miles Calm Calm - N/A   Scattered Clouds
4:13 AM 28.4°F 24.8°F 86% 30.15 in 0.5 miles ESE 5.8 mph - N/A   Scattered Clouds
4:16 AM 28.4°F 24.8°F 86% 30.15 in 0.5 miles ESE 5.8 mph - N/A   Mostly Cloudy
4:48 AM 28.4°F 26.6°F 93% 30.16 in 4.0 miles East 4.6 mph - N/A   Mostly Cloudy
4:53 AM 28.0°F 26.1°F 92% 30.19 in 4.0 miles East 4.6 mph - N/A Fog Patches of Fog
5:53 AM 27.0°F 25.0°F 92% 30.20 in 6.0 miles ESE 3.5 mph - N/A Fog Patches of Fog
6:53 AM 28.0°F 25.0°F 88% 30.23 in 2.0 miles ESE 5.8 mph - N/A   Scattered Clouds
7:19 AM 28.4°F 24.8°F 86% 30.21 in 1.5 miles East 5.8 mph - N/A   Mostly Cloudy
7:53 AM 28.0°F 26.1°F 92% 30.26 in 6.0 miles East 4.6 mph - N/A Fog Patches of Fog
8:53 AM 30.0°F 27.0°F 88% 30.28 in 10.0 miles Calm Calm - N/A   Partly Cloudy
9:53 AM 32.0°F 26.1°F 79% 30.30 in 10.0 miles North 4.6 mph - N/A   Partly Cloudy
10:53 AM 34.0°F 25.0°F 70% 30.32 in 10.0 miles North 6.9 mph - N/A   Partly Cloudy
11:53 AM 35.6°F 24.8°F 65% 30.28 in 10.0 miles NNW 5.8 mph - N/A   Partly Cloudy
12:53 PM 36.0°F 25.0°F 64% 30.32 in 10.0 miles North 6.9 mph - N/A   Partly Cloudy
1:53 PM 36.0°F 23.0°F 59% 30.33 in 10.0 miles NNE 6.9 mph - N/A   Partly Cloudy
2:53 PM 37.0°F 19.9°F 50% 30.33 in 10.0 miles ENE 8.1 mph - N/A   Scattered Clouds
3:53 PM 36.0°F 19.9°F 52% 30.34 in 10.0 miles Calm Calm - N/A   Scattered Clouds
4:53 PM 32.0°F 19.0°F 59% 30.35 in 10.0 miles North 3.5 mph - N/A   Scattered Clouds
5:53 PM 33.1°F 19.0°F 56% 30.35 in 10.0 miles NNE 3.5 mph - N/A   Scattered Clouds
6:53 PM 30.9°F 21.0°F 67% 30.35 in 10.0 miles East 5.8 mph - N/A   Partly Cloudy
7:53 PM 30.9°F 21.9°F 69% 30.34 in 10.0 miles ESE 3.5 mph - N/A   Partly Cloudy
8:53 PM 30.0°F 23.0°F 75% 30.34 in 10.0 miles SE 4.6 mph - N/A   Partly Cloudy
9:53 PM 28.9°F 23.0°F 78% 30.35 in 10.0 miles ESE 4.6 mph - N/A   Partly Cloudy
10:53 PM 28.9°F 24.1°F 82% 30.35 in 10.0 miles ESE 5.8 mph - N/A   Partly Cloudy
11:53 PM 28.9°F 23.0°F 78% 30.34 in 10.0 miles SE 5.8 mph - N/A   Scattered Clouds
Moon Phase
Jan. 11 Jan. 18 Jan. 26 Feb. 03 Feb. 10
Sunrise:07:54 AM (PST) Moon Rise:07:28 AM (PST)1/11
Sunset:04:40 PM (PST) Moon Set:05:09 PM (PST)1/11

Copyright © 2014 The Weather Underground, Inc.